H1 CPF 2 NER 2023 11 12 9 316 01 glonass144 H2 2207501 9144 52984 2023 11 12 0 0 0 2023 11 15 23 45 0 900 1 1 0 0 0 1 H9 10 0 60260 0.00000 0 -14541029.041 18536389.416 -9758344.983 10 0 60260 900.00000 0 -13836562.376 17339343.784 -12568552.388 10 0 60260 1800.00000 0 -13102988.376 15784669.897 -15134279.015 10 0 60260 2700.00000 0 -12396819.606 13895736.863 -17405511.388 10 0 60260 3600.00000 0 -11770294.168 11708170.033 -19337945.018 10 0 60260 4500.00000 0 -11269052.123 9268598.207 -20893858.873 10 0 60260 5400.00000 0 -10930105.669 6632944.517 -22042861.377 10 0 60260 6300.00000 0 -10780189.961 3864331.370 -22762492.636 10 0 60260 7200.00000 0 -10834565.318 1030686.351 -23038670.510 10 0 60260 8100.00000 0 -11096322.317 -1797851.314 -22865971.329 10 0 60260 9000.00000 0 -11556219.856 -4551615.582 -22247739.434 10 0 60260 9900.00000 0 -12193063.446 -7164077.610 -21196023.137 10 0 60260 10800.00000 0 -12974607.955 -9574377.685 -19731338.282 10 0 60260 11700.00000 0 -13858946.509 -11729619.428 -17882264.024 10 0 60260 12600.00000 0 -14796326.493 -13586830.592 -15684878.943 10 0 60260 13500.00000 0 -15731315.229 -15114509.043 -13182048.878 10 0 60260 14400.00000 0 -16605222.989 -16293690.095 -10422580.928 10 0 60260 15300.00000 0 -17358679.941 -17118491.781 -7460260.926 10 0 60260 16200.00000 0 -17934257.146 -17596116.883 -4352794.084 10 0 60260 17100.00000 0 -18279019.955 -17746313.689 -1160670.469 10 0 60260 18000.00000 0 -18346905.204 -17600320.363 2054021.443 10 0 60260 18900.00000 0 -18100821.391 -17199339.741 5228809.063 10 0 60260 19800.00000 0 -17514383.060 -16592610.984 8302053.375 10 0 60260 20700.00000 0 -16573206.458 -15835161.315 11214145.742 10 0 60260 21600.00000 0 -15275712.264 -14985334.095 13908660.428 10 0 60260 22500.00000 0 -13633402.202 -14102198.367 16333440.703 10 0 60260 23400.00000 0 -11670598.452 -13242949.318 18441598.095 10 0 60260 24300.00000 0 -9423657.167 -12460408.816 20192406.504 10 0 60260 25200.00000 0 -6939689.059 -11800730.365 21552075.217 10 0 60260 26100.00000 0 -4274840.189 -11301403.728 22494387.377 10 0 60260 27000.00000 0 -1492203.817 -10989641.617 23001193.122 10 0 60260 27900.00000 0 1340551.097 -10881214.719 23062749.286 10 0 60260 28800.00000 0 4153737.811 -10979782.708 22677900.244 10 0 60260 29700.00000 0 6878291.969 -11276748.411 21854097.134 10 0 60260 30600.00000 0 9448386.673 -11751640.864 20607255.374 10 0 60260 31500.00000 0 11803916.043 -12373011.327 18961452.985 10 0 60260 32400.00000 0 13892746.251 -13099805.299 16948474.857 10 0 60260 33300.00000 0 15672642.206 -13883154.002 14607210.657 10 0 60260 34200.00000 0 17112791.021 -14668511.326 11982916.702 10 0 60260 35100.00000 0 18194859.652 -15398047.747 9126354.561 10 0 60260 36000.00000 0 18913542.933 -16013201.652 6092821.591 10 0 60260 36900.00000 0 19276579.058 -16457281.449 2941090.929 10 0 60260 37800.00000 0 19304231.490 -16678009.157 -267719.567 10 0 60260 38700.00000 0 19028258.517 -16629897.977 -3471328.165 10 0 60260 39600.00000 0 18490413.150 -16276362.719 -6607497.220 10 0 60260 40500.00000 0 17740536.006 -15591472.663 -9615244.705 10 0 60260 41400.00000 0 16834321.170 -14561271.051 -12436035.352 10 0 60260 42300.00000 0 15830849.231 -13184603.414 -15014927.501 10 0 60260 43200.00000 0 14789991.744 -11473417.459 -17301652.515 10 0 60260 44100.00000 0 13769797.185 -9452519.559 -19251604.790 10 0 60260 45000.00000 0 12823969.440 -7158795.863 -20826722.140 10 0 60260 45900.00000 0 11999546.106 -4639928.805 -21996238.518 10 0 60260 46800.00000 0 11334875.490 -1952661.214 -22737293.642 10 0 60260 47700.00000 0 10857978.516 839320.426 -23035387.003 10 0 60260 48600.00000 0 10585365.400 3667795.817 -22884666.867 10 0 60260 49500.00000 0 10521357.484 6462613.536 -22288048.298 10 0 60260 50400.00000 0 10657943.145 9154377.952 -21257157.612 10 0 60260 51300.00000 0 10975173.754 11677108.187 -19812104.269 10 0 60260 52200.00000 0 11442082.656 13970758.036 -17981084.668 10 0 60260 53100.00000 0 12018087.695 15983491.528 -15799825.779 10 0 60260 54000.00000 0 12654817.118 17673619.264 -13310879.857 10 0 60260 54900.00000 0 13298280.587 19011115.037 -10562784.562 10 0 60260 55800.00000 0 13891292.291 19978650.089 -7609105.656 10 0 60260 56700.00000 0 14376042.407 20572102.977 -4507381.873 10 0 60260 57600.00000 0 14696707.016 20800525.323 -1317993.561 10 0 60260 58500.00000 0 14801985.087 20685566.883 1897021.741 10 0 60260 59400.00000 0 14647454.557 20260386.284 5075182.748 10 0 60260 60300.00000 0 14197647.548 19568095.451 8154782.445 10 0 60260 61200.00000 0 13427757.023 18659805.221 11076086.407 10 0 60260 62100.00000 0 12324903.093 17592356.095 13782487.957 10 0 60260 63000.00000 0 10888906.024 16425830.828 16221597.977 10 0 60260 63900.00000 0 9132533.885 15220954.083 18346248.836 10 0 60260 64800.00000 0 7081214.809 14036488.475 20115394.039 10 0 60260 65700.00000 0 4772225.992 12926735.714 21494887.511 10 0 60260 66600.00000 0 2253393.168 11939246.631 22458128.934 10 0 60260 67500.00000 0 -418645.881 11112834.640 22986564.226 10 0 60260 68400.00000 0 -3180542.593 10475974.225 23070032.911 10 0 60260 69300.00000 0 -5964617.786 10045649.953 22706956.825 10 0 60260 70200.00000 0 -8701423.759 9826702.839 21904367.282 10 0 60260 71100.00000 0 -11322384.095 9811700.443 20677770.459 10 0 60260 72000.00000 0 -13762403.717 9981335.658 19050853.419 10 0 60260 72900.00000 0 -15962342.927 10305337.479 17055035.768 10 0 60260 73800.00000 0 -17871254.436 10743856.027 14728874.536 10 0 60260 74700.00000 0 -19448291.698 11249264.520 12117332.461 10 0 60260 75600.00000 0 -20664210.044 11768303.470 9270922.336 10 0 60260 76500.00000 0 -21502398.403 12244477.923 6244742.503 10 0 60260 77400.00000 0 -21959398.467 12620607.589 3097420.888 10 0 60260 78300.00000 0 -22044889.179 12841422.832 -110013.021 10 0 60260 79200.00000 0 -21781136.504 12856096.973 -3315307.059 10 0 60260 80100.00000 0 -21201930.821 12620607.427 -6456193.542 10 0 60260 81000.00000 0 -20351055.844 12099824.844 -9471601.168 10 0 60260 81900.00000 0 -19280352.882 11269240.411 -12302847.711 10 0 60260 82800.00000 0 -18047461.611 10116256.360 -14894789.589 10 0 60260 83700.00000 0 -16713332.440 8640982.938 -17196905.123 10 0 60260 84600.00000 0 -15339615.507 6856505.826 -19164289.442 10 0 60260 85500.00000 0 -13986036.779 4788610.396 -20758540.724 10 0 60261 0.00000 0 -12707872.597 2474972.374 -21948519.517 10 0 60261 900.00000 0 -11553629.046 -36154.260 -22710966.156 10 0 60261 1800.00000 0 -10563026.349 -2687695.522 -23030962.049 10 0 60261 2700.00000 0 -9765371.447 -5415893.409 -22902227.455 10 0 60261 3600.00000 0 -9178389.424 -8152727.953 -22327247.870 10 0 60261 4500.00000 0 -8807562.433 -10828525.584 -21317226.995 10 0 60261 5400.00000 0 -8646003.859 -13374644.700 -19891866.987 10 0 60261 6300.00000 0 -8674872.516 -15726126.130 -18078980.295 10 0 60261 7200.00000 0 -8864308.522 -17824197.559 -15913940.845 10 0 60261 8100.00000 0 -9174850.225 -19618527.149 -13438985.692 10 0 60261 9000.00000 0 -9559270.951 -21069132.253 -10702381.288 10 0 60261 9900.00000 0 -9964756.438 -22147863.736 -7757471.446 10 0 60261 10800.00000 0 -10335329.346 -22839404.563 -4661626.472 10 0 60261 11700.00000 0 -10614416.781 -23141742.038 -1475114.970 10 0 60261 12600.00000 0 -10747450.916 -23066095.452 1740078.565 10 0 60261 13500.00000 0 -10684391.659 -22636304.099 4921466.349 10 0 60261 14400.00000 0 -10382063.980 -21887703.399 8007275.674 10 0 60261 15300.00000 0 -9806210.779 -20865538.377 10937648.729 10 0 60261 16200.00000 0 -8933174.625 -19622982.959 13655800.366 10 0 60261 17100.00000 0 -7751137.676 -18218849.705 16109111.561 10 0 60261 18000.00000 0 -6260867.963 -16715087.061 18250137.950 10 0 60261 18900.00000 0 -4475941.050 -15174169.384 20037514.928 10 0 60261 19800.00000 0 -2422427.936 -13656488.814 21436743.125 10 0 60261 20700.00000 0 -138062.201 -12217857.341 22420840.559 10 0 60261 21600.00000 0 2329079.311 -10907222.153 22970850.405 10 0 60261 22500.00000 0 4922328.235 -9764688.177 23076196.012 10 0 60261 23400.00000 0 7578537.234 -8819928.619 22734877.463 10 0 60261 24300.00000 0 10230467.314 -8091048.252 21953506.681 10 0 60261 25200.00000 0 12809352.699 -7583945.486 20747180.700 10 0 60261 26100.00000 0 15247538.844 -7292198.867 19139195.380 10 0 60261 27000.00000 0 17481086.067 -7197482.169 17160604.454 10 0 60261 27900.00000 0 19452232.444 -7270490.608 14849631.352 10 0 60261 28800.00000 0 21111614.943 -7472339.678 12250943.875 10 0 60261 29700.00000 0 22420157.316 -7756378.504 9414804.263 10 0 60261 30600.00000 0 23350546.515 -8070342.241 6396109.633 10 0 60261 31500.00000 0 23888235.902 -8358753.634 3253340.064 10 0 60261 32400.00000 0 24031932.891 -8565473.029 47433.684 10 0 60261 33300.00000 0 23793549.767 -8636289.363 -3159390.189 10 0 60261 34200.00000 0 23197618.828 -8521442.420 -6304837.277 10 0 60261 35100.00000 0 22280195.352 -8177968.931 -9327750.480 10 0 60261 36000.00000 0 21087293.626 -7571772.039 -12169304.010 10 0 60261 36900.00000 0 19672921.096 -6679324.871 -14774155.580 10 0 60261 37800.00000 0 18096792.904 -5488934.176 -17091533.424 10 0 60261 38700.00000 0 16421822.860 -4001508.298 -19076236.050 10 0 60261 39600.00000 0 14711496.574 -2230794.743 -20689524.287 10 0 60261 40500.00000 0 13027237.641 -203074.995 -21899887.370 10 0 60261 41400.00000 0 11425878.160 2043672.718 -22683667.323 10 0 60261 42300.00000 0 9957340.500 4461109.301 -23025528.797 10 0 60261 43200.00000 0 8662628.300 6992314.699 -22918764.675 10 0 60261 44100.00000 0 7572211.385 9573938.247 -22365431.056 10 0 60261 45000.00000 0 6704872.680 12138629.972 -21376308.761 10 0 60261 45900.00000 0 6067065.254 14617651.330 -19970691.948 10 0 60261 46800.00000 0 5652805.919 16943556.133 -18176008.010 10 0 60261 47700.00000 0 5444108.926 19052829.235 -16027276.329 10 0 60261 48600.00000 0 5411940.134 20888372.369 -13566416.875 10 0 60261 49500.00000 0 5517649.837 22401732.882 -10841422.656 10 0 60261 50400.00000 0 5714821.958 23554982.104 -7905412.970 10 0 60261 51300.00000 0 5951459.670 24322165.005 -4815586.829 10 0 60261 52200.00000 0 6172413.179 24690261.147 -1632097.997 10 0 60261 53100.00000 0 6321945.392 24659617.759 1583125.317 10 0 60261 54000.00000 0 6346325.501 24243838.269 4767592.137 10 0 60261 54900.00000 0 6196339.807 23469132.730 7859467.329 10 0 60261 55800.00000 0 5829612.954 22373159.255 10798772.830 10 0 60261 56700.00000 0 5212641.300 21003406.849 13528547.958 10 0 60261 57600.00000 0 4322452.688 19415188.963 15995946.465 10 0 60261 58500.00000 0 3147822.985 17669332.987 18153249.635 10 0 60261 59400.00000 0 1689998.587 15829662.963 19958776.819 10 0 60261 60300.00000 0 -37105.145 13960380.781 21377677.085 10 0 60261 61200.00000 0 -2007237.729 12123454.648 22382588.153 10 0 60261 62100.00000 0 -4182666.019 10376122.682 22954151.433 10 0 60261 63000.00000 0 -6515510.346 8768614.177 23081374.656 10 0 60261 63900.00000 0 -8949509.767 7342181.727 22761836.261 10 0 60261 64800.00000 0 -11422144.469 6127524.364 22001728.412 10 0 60261 65700.00000 0 -13867028.902 5143665.682 20815738.128 10 0 60261 66600.00000 0 -16216478.107 4397332.315 19226768.707 10 0 60261 67500.00000 0 -18404142.610 3882857.628 17265506.170 10 0 60261 68400.00000 0 -20367604.141 3582614.069 14969838.092 10 0 60261 69300.00000 0 -22050825.657 3467955.936 12384134.736 10 0 60261 70200.00000 0 -23406354.694 3500633.244 9558404.930 10 0 60261 71100.00000 0 -24397188.703 3634617.814 6547341.545 10 0 60261 72000.00000 0 -24998224.474 3818265.330 3409273.729 10 0 60261 72900.00000 0 -25197230.549 3996722.777 205045.159 10 0 60261 73800.00000 0 -24995301.048 4114479.972 -3003160.724 10 0 60261 74700.00000 0 -24406770.703 4117957.315 -6153025.986 10 0 60261 75600.00000 0 -23458593.435 3958019.861 -9183310.560 10 0 60261 76500.00000 0 -22189209.325 3592310.374 -12035047.779 10 0 60261 77400.00000 0 -20646946.522 2987301.223 -14652699.139 10 0 60261 78300.00000 0 -18888024.452 2119976.541 -16985245.022 10 0 60261 79200.00000 0 -16974241.732 979071.394 -18987189.215 10 0 60261 80100.00000 0 -14970445.771 -434186.615 -20619456.698 10 0 60261 81000.00000 0 -12941890.434 -2105866.893 -21850166.326 10 0 60261 81900.00000 0 -10951592.994 -4009667.600 -22655262.555 10 0 60261 82800.00000 0 -9057801.752 -6107777.566 -23018993.183 10 0 60261 83700.00000 0 -7311680.958 -8352233.748 -22934223.265 10 0 60261 84600.00000 0 -5755310.450 -10686718.473 -22402578.650 10 0 60261 85500.00000 0 -4420084.032 -13048721.819 -21434416.051 10 0 60262 0.00000 0 -3325573.639 -15371978.699 -20048620.250 10 0 60262 900.00000 0 -2478905.842 -17589079.782 -18272231.575 10 0 60262 1800.00000 0 -1874677.336 -19634143.533 -16139913.054 10 0 60262 2700.00000 0 -1495409.618 -21445441.191 -13693265.564 10 0 60262 3600.00000 0 -1312523.543 -22967861.184 -10980006.610 10 0 60262 4500.00000 0 -1287790.102 -24155110.644 -8053028.912 10 0 60262 5400.00000 0 -1375194.228 -24971561.457 -4969358.161 10 0 60262 6300.00000 0 -1523130.792 -25393663.732 -1789031.293 10 0 60262 7200.00000 0 -1676838.037 -25410868.029 1426081.735 10 0 60262 8100.00000 0 -1780963.787 -25026018.711 4613488.704 10 0 60262 9000.00000 0 -1782154.577 -24255203.287 7711294.006 10 0 60262 9900.00000 0 -1631557.278 -23127065.615 10659401.306 10 0 60262 10800.00000 0 -1287126.994 -21681613.385 13400676.372 10 0 60262 11700.00000 0 -715643.709 -19968571.324 15882047.704 10 0 60262 12600.00000 0 105647.119 -18045350.234 18055524.145 10 0 60262 13500.00000 0 1187838.709 -15974717.506 19879110.797 10 0 60262 14400.00000 0 2529661.666 -13822266.580 21317606.781 10 0 60262 15300.00000 0 4117306.377 -11653790.513 22343270.913 10 0 60262 16200.00000 0 5924776.507 -9532668.120 22936343.975 10 0 60262 17100.00000 0 7914759.195 -7517370.063 23085418.938 10 0 60262 18000.00000 0 10039976.419 -5659186.888 22787653.175 10 0 60262 18900.00000 0 12244962.403 -4000271.572 22048819.383 10 0 60262 19800.00000 0 14468194.695 -2572076.059 20883194.598 10 0 60262 20700.00000 0 16644491.958 -1394245.159 19313289.318 10 0 60262 21600.00000 0 18707580.651 -474012.455 17369421.349 10 0 60262 22500.00000 0 20592725.580 193877.593 15089141.620 10 0 60262 23400.00000 0 22239316.262 626718.631 12516521.754 10 0 60262 24300.00000 0 23593302.482 852881.522 9701315.725 10 0 60262 25200.00000 0 24609378.038 910383.693 6698010.344 10 0 60262 26100.00000 0 25252821.509 845048.446 3564781.649 10 0 60262 27000.00000 0 25500916.617 708331.284 362376.334 10 0 60262 27900.00000 0 25343891.784 554904.556 -2847060.870 10 0 60262 28800.00000 0 24785338.226 440102.338 -6001191.416 10 0 60262 29700.00000 0 23842087.572 417333.787 -9038695.418 10 0 60262 30600.00000 0 22543552.628 535575.081 -11900468.471 10 0 60262 31500.00000 0 20930557.517 837047.146 -14530778.890 10 0 60262 32400.00000 0 19053705.143 1355178.951 -16878362.052 10 0 60262 33300.00000 0 16971349.553 2112944.350 -18897429.635 10 0 60262 34200.00000 0 14747257.779 3121644.796 -20548573.108 10 0 60262 35100.00000 0 12448058.948 4380191.485 -21799542.999 10 0 60262 36000.00000 0 10140587.665 5874919.334 -22625887.922 10 0 60262 36900.00000 0 7889233.224 7579942.532 -23011440.206 10 0 60262 37800.00000 0 5753405.989 9458038.397 -22948638.080 10 0 60262 38700.00000 0 3785227.314 11462023.669 -22438677.717 10 0 60262 39600.00000 0 2027539.891 13536566.307 -21491491.853 10 0 60262 40500.00000 0 512321.710 15620357.212 -20125555.274 10 0 60262 41400.00000 0 -740430.388 17648550.842 -18367520.952 10 0 60262 42300.00000 0 -1723301.596 19555372.047 -16251694.104 10 0 60262 43200.00000 0 -2441520.548 21276779.318 -13819354.833 10 0 60262 44100.00000 0 -2912480.343 22753072.117 -11117943.071 10 0 60262 45000.00000 0 -3164741.318 23931332.318 -8200122.535 10 0 60262 45900.00000 0 -3236559.819 24767596.862 -5122742.862 10 0 60262 46800.00000 0 -3174007.318 25228670.314 -1945721.181 10 0 60262 47700.00000 0 -3028761.523 25293501.390 1269133.951 10 0 60262 48600.00000 0 -2855664.851 24954066.282 4459332.309 10 0 60262 49500.00000 0 -2710155.138 24215722.621 7562921.072 10 0 60262 50400.00000 0 -2645678.476 23097020.445 10519688.820 10 0 60262 51300.00000 0 -2711194.252 21628979.437 13272330.825 10 0 60262 52200.00000 0 -2948878.050 19853864.021 15767553.190 10 0 60262 53100.00000 0 -3392119.209 17823508.706 17957094.940 10 0 60262 54000.00000 0 -4063896.986 15597264.412 19798649.264 10 0 60262 54900.00000 0 -4975603.061 13239651.780 21256667.370 10 0 60262 55800.00000 0 -6126359.342 10817819.018 22303030.856 10 0 60262 56700.00000 0 -7502859.270 8398909.298 22917581.176 10 0 60262 57600.00000 0 -9079739.317 6047445.821 23088497.419 10 0 60262 58500.00000 0 -10820465.491 3822841.549 22812516.295 10 0 60262 59400.00000 0 -12678698.718 1777135.064 22094990.939 10 0 60262 60300.00000 0 -14600083.377 -46955.462 20949787.775 10 0 60262 61200.00000 0 -16524386.038 -1617581.188 19399023.331 10 0 60262 62100.00000 0 -18387896.972 -2914851.714 17472645.511 10 0 60262 63000.00000 0 -20125996.140 -3931420.325 15207866.430 10 0 60262 63900.00000 0 -21675778.180 -4672541.841 12648456.483 10 0 60262 64800.00000 0 -22978628.121 -5155601.124 9843911.876 10 0 60262 65700.00000 0 -23982640.992 -5409132.050 6848510.209 10 0 60262 66600.00000 0 -24644784.357 -5471367.925 3720271.110 10 0 60262 67500.00000 0 -24932712.919 -5388383.920 519840.929 10 0 60262 68400.00000 0 -24826158.281 -5211909.437 -2690677.656 10 0 60262 69300.00000 0 -24317834.250 -4996902.467 -5848928.779 10 0 60262 70200.00000 0 -23413818.078 -4798988.462 -8893515.914 10 0 60262 71100.00000 0 -22133389.872 -4671872.393 -11765199.960 10 0 60262 72000.00000 0 -20508335.141 -4664834.278 -14408058.883 10 0 60262 72900.00000 0 -18581738.165 -4820415.285 -16770585.618 10 0 60262 73800.00000 0 -16406315.459 -5172393.814 -18806701.922 10 0 60262 74700.00000 0 -14042358.255 -5744138.901 -20476667.488 10 0 60262 75600.00000 0 -11555369.568 -6547412.392 -21747865.694 10 0 60262 76500.00000 0 -9013494.509 -7581672.406 -22595449.900 10 0 60262 77400.00000 0 -6484851.376 -8833909.267 -23002836.921 10 0 60262 78300.00000 0 -4034875.333 -10279022.447 -22962037.529 10 0 60262 79200.00000 0 -1723785.937 -11880723.940 -22473817.051 10 0 60262 80100.00000 0 395715.399 -13592931.001 -21547682.633 10 0 60262 81000.00000 0 2280421.737 -15361590.207 -20201697.238 10 0 60262 81900.00000 0 3898188.390 -17126856.299 -18462124.002 10 0 60262 82800.00000 0 5229027.120 -18825533.997 -16362908.037 10 0 60262 83700.00000 0 6265682.036 -20393679.650 -13945006.163 10 0 60262 84600.00000 0 7013664.521 -21769252.705 -11255578.187 10 0 60262 85500.00000 0 7490747.608 -22894704.757 -8347056.278 10 0 60263 0.00000 0 7725943.272 -23719396.638 -5276111.793 10 0 60263 900.00000 0 7758008.185 -24201741.807 -2102539.069 10 0 60263 1800.00000 0 7633543.062 -24310984.721 1111916.806 10 0 60263 2700.00000 0 7404768.520 -24028541.065 4304769.837 10 0 60263 3600.00000 0 7127073.006 -23348842.890 7414012.099 10 0 60263 4500.00000 0 6856438.121 -22279654.471 10379319.066 10 0 60263 5400.00000 0 6646851.106 -20841846.594 13143217.344 10 0 60263 6300.00000 0 6547814.318 -19068639.803 15652192.306 10 0 60263 7200.00000 0 6602056.770 -17004349.288 17857714.626 10 0 60263 8100.00000 0 6843543.800 -14702684.571 19717166.837 10 0 60263 9000.00000 0 7295868.011 -12224675.281 21194653.234 10 0 60263 9900.00000 0 7971088.323 -9636309.266 22261678.936 10 0 60263 10800.00000 0 8869065.206 -7005980.634 22897686.531 10 0 60263 11700.00000 0 9977319.499 -4401852.528 23090441.416 10 0 60263 12600.00000 0 11271420.656 -1889242.543 22836259.577 10 0 60263 13500.00000 0 12715888.562 471862.664 22140074.299 10 0 60263 14400.00000 0 14265572.084 2629062.540 21015340.902 10 0 60263 15300.00000 0 15867447.992 4539475.968 19483781.270 10 0 60263 16200.00000 0 17462766.675 6171274.337 17574972.566 10 0 60263 17100.00000 0 18989456.682 7504752.135 15325787.073 10 0 60263 18000.00000 0 20384689.202 8532891.564 12779692.766 10 0 60263 18900.00000 0 21587496.617 9261398.347 9985926.675 10 0 60263 19800.00000 0 22541336.515 9708207.511 6998555.555 10 0 60263 20700.00000 0 23196494.202 9902479.799 3875440.741 10 0 60263 21600.00000 0 23512222.851 9883130.575 677126.115 10 0 60263 22500.00000 0 23458530.788 9696952.783 -2534330.039 10 0 60263 23400.00000 0 23017539.635 9396412.700 -5696557.032 10 0 60263 24300.00000 0 22184354.609 9037211.419 -8748084.298 10 0 60263 25200.00000 0 20967408.523 8675715.197 -11629540.637 10 0 60263 26100.00000 0 19388262.984 8366363.785 -14284816.214 10 0 60263 27000.00000 0 17480873.226 8159167.194 -16662163.939 10 0 60263 27900.00000 0 15290345.608 8097397.891 -18715217.917 10 0 60263 28800.00000 0 12871238.480 8215577.479 -20403908.140 10 0 60263 29700.00000 0 10285476.477 8537844.500 -21695252.732 10 0 60263 30600.00000 0 7599964.855 9076774.006 -22564011.464 10 0 60263 31500.00000 0 4884003.313 9832700.291 -22993187.055 10 0 60263 32400.00000 0 2206607.306 10793572.842 -22974363.932 10 0 60263 33300.00000 0 -366151.143 11935352.770 -22507877.326 10 0 60263 34200.00000 0 -2773671.887 13222933.874 -21602809.114 10 0 60263 35100.00000 0 -4963118.671 14611550.073 -20276810.302 10 0 60263 36000.00000 0 -6891379.076 16048610.062 -18555753.568 10 0 60263 36900.00000 0 -8526610.846 17475881.694 -16473222.825 10 0 60263 37800.00000 0 -9849310.700 18831933.582 -14069850.092 10 0 60263 38700.00000 0 -10852862.104 20054730.342 -11392513.150 10 0 60263 39600.00000 0 -11543540.647 21084271.296 -8493410.395 10 0 60263 40500.00000 0 -11939978.865 21865160.622 -5429031.874 10 0 60263 41400.00000 0 -12072115.301 22348999.953 -2259047.559 10 0 60263 42300.00000 0 -11979674.501 22496502.170 954864.282 10 0 60263 43200.00000 0 -11710244.441 22279237.174 4150224.800 10 0 60263 44100.00000 0 -11317034.690 21680936.348 7264973.926 10 0 60263 45000.00000 0 -10856411.777 20698301.303 10238676.991 10 0 60263 45900.00000 0 -10385317.170 19341283.677 13013694.859 10 0 60263 46800.00000 0 -9958677.624 17632825.047 15536294.997 10 0 60263 47700.00000 0 -9626917.345 15608068.710 17757682.411 10 0 60263 48600.00000 0 -9433676.546 13313076.894 19634931.457 10 0 60263 49500.00000 0 -9413831.710 10803107.266 21131801.751 10 0 60263 50400.00000 0 -9591899.904 8140520.466 22219423.861 10 0 60263 51300.00000 0 -9980893.114 5392405.101 22876843.083 10 0 60263 52200.00000 0 -10581669.817 2628017.767 23091412.284 10 0 60263 53100.00000 0 -11382810.369 -83857.162 22859027.437 10 0 60263 54000.00000 0 -12361021.257 -2677520.349 22184202.188 10 0 60263 54900.00000 0 -13482051.600 -5092836.681 21079980.437 10 0 60263 55800.00000 0 -14702084.362 -7277480.020 19567688.588 10 0 60263 56700.00000 0 -15969545.187 -9188852.397 17676531.692 10 0 60263 57600.00000 0 -17227254.666 -10795599.536 15443040.352 10 0 60263 58500.00000 0 -18414835.374 -12078660.998 12910377.840 10 0 60263 59400.00000 0 -19471274.300 -13031812.022 10127519.359 10 0 60263 60300.00000 0 -20337534.322 -13661674.906 7148317.889 10 0 60263 61200.00000 0 -20959105.826 -13987199.473 4030473.338 10 0 60263 62100.00000 0 -21288391.436 -14038634.232 834423.861 10 0 60263 63000.00000 0 -21286823.177 -13856031.041 -2377819.992 10 0 60263 63900.00000 0 -20926621.967 -13487345.812 -5543876.062 10 0 60263 64800.00000 0 -20192123.924 -12986215.025 -8602203.076 10 0 60263 65700.00000 0 -19080615.748 -12409501.766 -11493300.997 10 0 60263 66600.00000 0 -17602641.906 -11814715.146 -14160875.308 10 0 60263 67500.00000 0 -15781768.499 -11257412.674 -16552941.808 10 0 60263 68400.00000 0 -13653811.620 -10788696.156 -18622849.536 10 0 60263 69300.00000 0 -11265560.701 -10452908.086 -20330200.948 10 0 60263 70200.00000 0 -8673048.827 -10285627.100 -21641650.538 10 0 60263 71100.00000 0 -5939441.262 -10312048.535 -22531565.498 10 0 60263 72000.00000 0 -3132629.777 -10545819.783 -22982534.817 10 0 60263 72900.00000 0 -322632.902 -10988380.849 -22985716.281 10 0 60263 73800.00000 0 2421089.462 -11628838.904 -22541014.132 10 0 60263 74700.00000 0 5032294.851 -12444382.888 -21657083.565 10 0 60263 75600.00000 0 7450479.388 -13401221.060 -20351161.774 10 0 60263 76500.00000 0 9623155.975 -14456002.024 -18648728.789 10 0 60263 77400.00000 0 11507794.491 -15557658.983 -16583004.858 10 0 60263 78300.00000 0 13073343.391 -16649598.841 -14194294.520 10 0 60263 79200.00000 0 14301269.886 -17672142.961 -11529190.684 10 0 60263 80100.00000 0 15186076.444 -18565115.584 -8639655.013 10 0 60263 81000.00000 0 15735273.674 -19270469.649 -5581993.486 10 0 60263 81900.00000 0 15968812.830 -19734838.270 -2415748.111 10 0 60263 82800.00000 0 15918004.123 -19911903.440 797472.406 10 0 60263 83700.00000 0 15623968.809 -19764481.562 3995199.241 10 0 60263 84600.00000 0 15135692.607 -19266237.743 7115322.881 10 0 60263 85500.00000 0 14507764.552 -18402956.801 10097300.958 99